Location: Noordwijk
(52.2400°N, 4.4500°E)
Time: 00:37:45
(UTC+00:00)

TIGRISAT - Pass Details

Date: 07 December 2022
Orbit: 601 x 684 km, 97.7° (Epoch: 29 January)

Event Time Altitude Azimuth Distance (km) Brightness Sun altitude
Exits shadow 19:50:47 13° 316° (NW) 1,927 ? -38.5°
Maximum altitude 19:51:27 14° 307° (NW) 1,905 ? -38.6°
Drops below altitude 10° 19:53:44 10° 278° (W) 2,140 ? -39.0°
Sets 19:57:02 0° 253° (WSW) 3,051 ? -39.4°
